Location: Bühlhof
(48.7849°N, 8.6361°E)
Time: 00:12:04
(UTC+00:00)

CARTOSAT-1 - Pass Details

Date: 19 January 2026
Orbit: 594 x 598 km, 97.5° (Epoch: 9 February)

Event Time Altitude Azimuth Distance (km) Brightness Sun altitude
Rises 18:02:38 0° 163° (SSE) 2,831 6.9 -19.3°
Reaches altitude 10° 18:04:47 10° 163° (SSE) 1,933 6.0 -19.7°
Maximum altitude 18:08:59 84° 77° (ENE) 608 3.3 -20.4°
Drops below altitude 10° 18:13:14 10° 348° (NNW) 1,947 6.2 -21.1°
Sets 18:15:24 0° 348° (NNW) 2,853 7.0 -21.4°
